Location: Malvern Link
(52.1333°N, 2.3000°W)
Time: 03:08:33
(UTC+00:00)

QB50P2 - Visible Passes

Search period start: 28 June 2022 00:00
Search period end: 08 July 2022 00:00
Orbit: 589 x 607 km, 97.9° (Epoch: 27 June)

Date Brightness Start Highest point End Pass type
(mag) Time Alt. Az. Time Alt. Az. Time Alt. Az.
28 Jun ? 01:10:30 10° NNE 01:14:28 39° E 01:17:32 16° SSE visible
28 Jun ? 02:46:24 10° N 02:50:02 28° WNW 02:53:39 10° WSW visible
29 Jun ? 01:20:53 10° NNE 01:25:00 48° E 01:28:06 17° S visible
29 Jun ? 02:57:03 10° N 03:00:25 23° WNW 03:03:47 10° WSW visible
30 Jun ? 01:31:17 10° NNE 01:35:30 61° ESE 01:38:40 17° S visible
01 Jul ? 00:09:05 10° ENE 00:09:35 10° E 00:10:05 10° E visible
01 Jul ? 01:41:44 10° NNE 01:46:00 77° ESE 01:49:14 17° S visible
02 Jul ? 00:18:14 10° ENE 00:20:12 13° E 00:22:09 10° ESE visible
02 Jul ? 01:52:12 10° NNE 01:56:28 85° WNW 01:59:48 16° SSW visible
03 Jul ? 00:28:08 10° NE 00:30:47 16° E 00:33:26 10° SE visible
03 Jul ? 02:02:41 10° N 02:06:55 68° WNW 02:10:21 15° SSW visible
04 Jul ? 00:38:13 10° NE 00:41:22 20° E 00:44:12 11° SE visible
04 Jul ? 02:13:11 10° N 02:17:20 54° WNW 02:20:54 14° SW visible
05 Jul ? 00:48:25 10° NE 00:51:55 24° E 00:54:45 13° SE visible
05 Jul ? 02:23:43 10° N 02:27:46 44° WNW 02:31:27 12° SW visible
06 Jul ? 00:58:41 10° NNE 01:02:27 30° E 01:05:17 15° SSE visible
06 Jul ? 02:34:17 10° N 02:38:09 36° WNW 02:42:00 10° SW visible
07 Jul ? 01:09:00 10° NNE 01:12:58 37° E 01:15:50 17° SSE visible
07 Jul ? 02:44:51 10° N 02:48:33 29° WNW 02:52:14 10° SW visible
